STARLINK-11527, 62523

Orbit data source: Space-Track

STARLINK-11527, 62523 is a payload satellite owned by SpaceX/Seattle (US) in LEO that was launched on Wed, 08 Jan 2025 UTC via an FALCON 9 launch vehicle from the Air Force Eastern Test Range (AFETR). Payload-class satellites include a variety of spacecraft equipped with specific instruments for various scientific and technological missions. These include communications satellites like Starlink; space stations such as the ISS; scientific satellites like the Hubble; Earth observation satellites from companies like Planet Labs, Umbra, and HawkEye 360; GPS; miniature CubeSats for education and research; and military/defense satellites.

Loading next visibility...
Identifier
62523, 2025-004N
Orbit
LEO
Last TLE update
1 day ago
Origin
Manufacturer
SpaceX/Seattle
Mission
Operational Commercial Communications
Bus & Motor
STARLINK V2M, Unknown motor
Mass
730 kg wet, ~700 kg dry
Launch date (UTC)
2025-01-08 (6 months ago)
Launch vehicle
FALCON 9
Launch site
Air Force Eastern Test Range (AFETR)
Object type
Payload
Rocket body
Debris
Shape & HBR
Box + 2 Pan, 29 m
Radar Cross Section
36.964 m², Large (>1 m²)

Expand to show TLE details & history

TLE from 1 day ago
0 STARLINK-11527
1 62523U 25004N   25181.27918802  .00149768  00000-0  11457-2 0  9998
2 62523  43.0019 151.9294 0003881 254.2624 105.7816 15.70918413 27515
Epoch: 2025-06-30T06:42Z
TLE epoch observation values (Epoch: 2025-06-30T06:42:01.844Z)
Latitude
-0.00002°
Longitude
132.83042°
Altitude
356.754 km
Speed
7.697 km/s
True Right ascension
10h 07m 43s
True Declination
0° 00' 00"
Sunlit
Object was in daylight at epoch
Visualization orbit readout
Latitude
-16.53984°
Longitude
-35.44651°
Altitude
357.296 km
Speed
7.697 km/s
Apparent Right ascension
02h 00m 37s
Apparent Declination
-63° 14' 15"
Sunlit
Object is in full shadow
Visualization observer readout
Local Sidereal Time
21:08:34
Azimuth
150.759° SSE
Elevation
-28.165°
Doppler factor
1
Orbital elements
Apogee altitude
360.867 km
Perigee altitude
355.638 km
Semi-major axis
6,736.389 km
Eccentricity
0.00039
Inclination
43.0019°
RAAN
151.9294°
Arg. of periapsis
254.2624°
True anomaly
Unknown
Mean anomaly
105.7816°
Eccentric anomaly
Unknown
Mean motion
3.92557 °/min
Orbital period
91.71 mins
BSTAR
0.0011457
Loading maneuver chart data...
Loading SW <> Apogee altitude chart data...
Loading historical data...
Loading historical data...
Loading historical data...
Loading historical data...
Loading historical data...
Loading historical data...
Loading historical data...

STARLINK-11527 Visibility forecast

Observer location: undefined°, undefined°

Span
Click to sort rows by Start time (UTC) header in descending order
Start Az.
Max El. time (UTC)
Max El. Az.
Max El.
End time (UTC)
End Az.
4 mins2025-07-02 01:40:16.793Z241.035° WSW2025-07-02 01:42:16.793Z141.444° SSE43.51°2025-07-02 01:44:16.793Z76.091° E
4 mins2025-07-02 04:53:16.793Z299.745° NW2025-07-02 04:54:16.793Z330.141° NNW39.087°2025-07-02 04:57:16.793Z94.728° ESE
|